Wind_Speed
7 8 8 9 10 10 10 10 11 12 12 12 11 11 10 11 11 11 11 11 12 12 12 12 12 12 12 11 11 11 12 13 13 13 14 14 14 14 14 14 13 13 13
8 8 8 8 8 9 9 10 11 11 11 12 12 12 12 11 11 12 12 12 13 13 12 12 12 12 11 11 11 12 13 13 13 14 14 15 15 15 14 14 14 14 14
7 7 7 7 8 8 8 9 10 10 11 12 12 12 12 12 12 12 12 13 13 13 13 12 12 12 12 13 13 13 13 13 14 14 14 14 15 15 14 14 14 14 14
7 7 7 7 7 8 8 8 9 9 10 11 11 12 12 11 12 12 12 13 13 13 13 12 12 12 13 13 13 13 14 13 13 14 14 14 14 14 14 14 14 15 15
8 7 7 7 7 8 8 8 8 8 9 10 10 11 11 11 12 12 12 13 13 13 13 13 13 13 13 13 13 13 13 13 14 14 14 14 14 14 14 15 14 14 14
8 7 7 7 8 7 8 8 8 9 9 9 10 10 11 11 12 12 12 12 13 13 14 14 14 14 13 13 13 14 13 13 14 15 15 15 15 15 15 15 15 15 15
8 8 8 8 8 9 9 9 9 9 9 9 10 10 10 11 12 12 13 13 13 13 13 13 14 14 15 14 14 14 14 14 15 15 15 15 15 15 15 16 16 16 16
8 9 9 9 9 9 9 9 9 10 10 10 10 10 11 11 12 12 13 13 13 14 14 14 14 14 14 14 14 14 15 15 15 15 15 14 15 15 16 15 15 16 16
9 10 10 10 10 10 10 10 11 11 11 11 11 11 12 12 13 13 12 12 13 14 14 14 14 14 13 14 13 13 14 14 14 14 14 14 14 15 15 15 16 16 16
9 10 10 11 11 11 11 11 12 12 12 12 12 12 13 13 13 13 13 13 13 14 14 14 14 14 14 14 14 14 14 14 14 14 14 15 15 15 15 15 15 16 16
10 11 11 11 12 12 12 12 12 13 13 13 13 13 13 13 13 13 13 14 14 14 14 14 14 14 14 14 14 14 14 15 15 15 15 15 16 16 16 16 16 16 17
12 12 11 12 12 13 13 13 14 14 14 14 14 14 14 14 14 14 14 14 14 14 14 14 14 14 14 14 15 15 15 15 15 16 16 16 16 16 16 17 17 17 17
13 13 13 13 13 14 14 14 14 15 15 15 15 15 15 15 15 15 15 15 14 14 14 14 14 14 14 15 15 15 16 16 16 17 17 17 17 17 17 17 18 18 18
15 15 15 15 15 15 15 15 16 16 16 16 16 16 16 16 16 16 15 15 15 15 15 15 15 15 16 16 16 16 17 17 17 18 18 18 18 18 19 19 19 19 20
16 16 16 16 16 16 16 17 17 17 17 17 17 17 17 17 16 16 16 16 16 16 16 16 17 16 17 17 18 18 18 18 18 19 19 19 20 20 20 20 20 21 21
18 17 17 18 18 17 18 18 18 18 19 19 19 18 17 17 17 17 16 16 17 17 17 17 17 18 18 18 19 19 19 19 19 20 20 20 21 21 21 21 21 21 21
19 19 19 19 19 19 19 19 19 20 19 19 19 18 18 18 18 18 18 18 18 19 19 18 18 18 19 19 19 19 20 20 20 20 20 20 21 21 22 22 21 21 22
20 20 20 20 20 20 21 21 20 20 20 20 20 20 20 20 20 20 20 20 20 20 20 20 19 20 19 20 20 20 20 21 21 21 21 21 21 21 22 21 22 22 23
19 20 21 21 21 21 21 21 21 21 21 21 21 21 22 22 22 21 21 21 20 20 21 21 20 20 20 20 21 21 21 21 21 21 21 22 22 22 22 22 23 23 23
21 21 21 21 22 22 22 22 22 22 22 22 22 22 22 22 22 22 22 22 22 21 21 22 22 21 21 21 21 22 22 22 22 22 22 22 22 23 23 23 23 24 24
21 22 22 23 23 23 23 23 23 23 22 22 22 23 23 23 23 22 22 23 23 23 23 23 23 23 23 22 23 22 22 23 23 22 23 23 23 23 23 23 24 24 24
22 23 23 24 23 23 24 23 23 24 23 23 23 24 24 24 24 24 24 25 25 24 25 25 25 25 24 24 24 24 23 23 24 24 24 24 23 23 23 24 24 24 25
23 24 24 25 25 25 25 25 25 25 25 25 25 25 25 25 25 25 25 26 26 26 26 26 26 25 26 25 25 25 25 25 25 25 25 24 24 24 24 24 24 25 25
25 25 25 25 25 26 26 26 26 26 26 27 27 27 27 27 27 27 27 27 27 27 27 27 27 27 27 27 26 26 26 26 26 26 26 25 25 25 25 25 25 25 25
27 27 27 27 27 27 27 27 28 28 27 27 27 28 29 29 29 29 29 29 29 29 29 29 29 29 28 28 27 27 27 27 27 27 28 27 26 26 26 27 27 26 26
29 29 29 28 28 29 29 29 29 29 29 29 30 30 30 30 31 31 31 31 31 30 30 30 30 30 30 29 29 28 28 28 28 28 29 29 29 28 27 28 28 28 28
Wind_Direction
288 290 289 286 282 282 281 282 281 275 273 275 274 271 269 266 267 270 270 270 273 274 274 275 276 275 272 268 266 262 258 258 257 258 260 265 266 267 268 269 268 265 262
290 289 290 286 286 287 284 281 283 281 276 278 278 275 272 271 267 270 272 272 275 277 277 278 277 276 272 268 267 265 261 260 258 259 260 263 263 264 265 265 264 262 260
291 286 284 285 287 287 288 286 285 288 282 280 277 275 275 276 276 272 272 272 274 273 273 276 277 277 275 271 268 267 266 261 261 262 264 264 263 263 264 262 260 258 257
291 284 281 285 288 290 292 294 293 290 289 284 279 276 275 277 278 277 275 276 275 271 271 275 275 275 271 270 269 268 268 264 261 263 264 264 264 264 263 262 258 256 255
288 282 282 286 288 291 293 296 294 292 290 288 285 281 279 279 277 277 274 276 277 273 271 272 272 271 271 269 267 266 265 265 262 262 262 262 263 263 264 263 260 257 255
285 283 283 289 289 288 290 292 291 290 290 293 290 285 281 279 275 273 274 276 276 275 273 273 273 271 271 272 272 269 267 264 262 262 263 263 264 264 263 263 262 262 262
287 288 287 288 291 291 291 290 289 289 292 293 292 287 282 279 279 277 276 276 275 275 276 277 276 274 273 272 274 273 272 272 269 268 268 268 268 267 265 264 264 266 267
285 285 286 286 287 290 291 291 294 294 294 295 293 291 288 286 286 284 283 279 279 278 278 279 278 277 277 274 276 275 273 273 274 274 274 273 272 269 266 265 266 266 265
285 284 287 285 288 291 292 293 295 294 292 293 291 291 290 288 286 286 286 284 279 277 278 277 276 275 273 273 273 274 274 274 274 272 272 271 271 270 269 269 267 266 264
285 286 286 286 288 290 290 290 291 293 291 289 290 290 290 288 285 285 285 283 281 279 279 278 277 275 274 273 273 272 273 274 275 274 274 273 272 271 272 272 271 270 268
283 284 283 284 286 289 291 290 288 290 289 286 286 288 289 289 286 285 285 284 282 280 279 278 278 276 274 274 273 274 275 276 275 275 276 276 275 274 274 273 272 271 271
282 283 281 283 286 289 291 290 289 288 287 285 284 284 286 286 285 284 282 281 281 281 281 280 278 277 276 275 275 274 275 276 276 275 276 277 276 274 274 273 271 271 272
279 280 280 282 286 287 289 290 288 287 287 287 287 286 285 285 284 283 282 278 278 279 280 280 278 277 279 278 276 277 278 278 277 276 276 276 276 275 276 274 272 272 272
276 277 277 280 283 284 285 287 288 288 288 287 287 286 286 285 284 281 280 278 277 277 278 278 278 277 278 279 278 278 279 279 279 279 277 275 274 275 276 275 274 273 273
275 276 277 278 280 282 283 285 287 287 286 285 285 284 284 283 282 280 279 277 275 274 276 278 279 279 280 281 280 279 279 278 278 278 277 275 275 275 276 276 275 274 274
274 275 275 277 278 280 281 282 283 285 285 284 283 281 280 281 282 281 281 279 276 275 276 279 279 280 281 283 283 280 278 279 278 278 277 276 275 275 276 276 275 275 275
275 274 275 275 276 277 278 280 281 283 283 282 282 281 279 279 280 280 279 279 278 278 277 278 279 279 281 281 282 281 280 280 280 279 278 277 277 276 277 275 274 274 275
275 274 274 274 277 278 278 279 280 281 281 280 280 280 279 279 279 279 278 279 279 278 277 275 277 278 280 281 282 282 282 282 281 280 279 279 279 278 277 276 275 275 276
278 277 275 273 275 277 278 278 279 279 278 279 278 278 279 279 280 279 277 277 277 277 277 276 276 278 279 281 282 282 281 281 281 281 280 280 279 277 277 277 278 278 278
279 278 277 275 276 277 278 278 278 277 277 278 278 278 278 279 281 280 278 277 276 276 277 277 277 278 278 279 283 282 281 280 280 281 281 281 279 278 278 279 279 280 279
278 278 279 278 276 276 277 277 277 276 275 276 276 277 277 278 279 279 278 277 277 276 278 278 277 277 278 278 281 283 282 281 280 281 282 281 280 280 280 280 281 281 280
280 279 279 278 278 277 276 276 277 276 275 274 275 276 276 277 278 277 277 277 277 277 277 277 277 277 277 278 279 280 281 280 279 280 282 282 281 281 280 280 281 282 281
280 280 280 279 279 279 277 276 276 275 274 273 273 274 275 277 277 277 277 277 276 276 277 277 277 277 277 279 278 278 279 280 280 280 282 282 281 281 281 280 281 282 282
278 279 280 280 278 278 278 277 276 275 274 273 272 272 273 275 277 277 277 277 277 277 277 277 277 277 278 279 279 278 279 279 280 280 281 281 280 280 281 281 280 282 283
279 278 278 279 279 278 278 278 276 276 274 273 273 272 272 273 275 276 277 276 276 278 278 278 277 276 277 277 277 279 278 279 279 280 280 280 280 279 280 281 280 281 282
279 279 277 277 278 279 278 277 277 276 275 274 274 273 273 273 273 275 276 276 276 277 278 277 276 276 277 277 277 278 279 278 278 278 279 279 279 278 278 278 280 281 281
Height
5856 5855 5855 5855 5855 5854 5854 5854 5853 5853 5853 5853 5853 5853 5853 5853 5853 5853 5853 5853 5853 5853 5853 5852 5852 5851 5851 5850 5850 5851 5852 5853 5854 5854 5855 5855 5855 5855 5856 5856 5856 5856 5857
5854 5854 5853 5853 5853 5852 5852 5852 5851 5851 5851 5850 5850 5850 5850 5851 5851 5851 5851 5851 5851 5850 5850 5850 5849 5849 5849 5848 5849 5849 5849 5850 5850 5851 5851 5851 5852 5852 5852 5853 5853 5853 5854
5853 5852 5852 5851 5851 5850 5850 5850 5849 5849 5848 5848 5848 5848 5848 5848 5848 5848 5848 5848 5848 5848 5847 5847 5846 5846 5846 5846 5846 5846 5846 5846 5847 5847 5847 5848 5848 5849 5849 5849 5850 5850 5851
5851 5850 5850 5850 5849 5848 5848 5848 5847 5847 5846 5846 5846 5845 5845 5845 5845 5845 5845 5845 5845 5845 5844 5844 5844 5843 5843 5843 5843 5843 5843 5843 5843 5844 5844 5845 5845 5845 5845 5846 5846 5847 5847
5849 5849 5848 5848 5847 5847 5846 5846 5845 5845 5844 5844 5843 5843 5842 5842 5843 5842 5842 5842 5842 5842 5841 5841 5841 5840 5840 5840 5840 5839 5839 5840 5840 5840 5841 5841 5841 5842 5842 5842 5843 5843 5844
5847 5847 5846 5846 5846 5845 5844 5844 5843 5843 5842 5842 5841 5840 5840 5840 5839 5839 5839 5839 5839 5838 5838 5838 5838 5837 5837 5837 5837 5836 5836 5836 5836 5837 5837 5837 5838 5838 5838 5839 5839 5840 5840
5846 5845 5845 5845 5844 5843 5843 5842 5841 5841 5840 5839 5839 5838 5838 5837 5836 5836 5836 5836 5835 5835 5835 5835 5834 5834 5834 5834 5833 5833 5833 5833 5833 5833 5833 5834 5834 5834 5835 5835 5835 5836 5836
5844 5844 5843 5842 5842 5841 5840 5840 5839 5838 5838 5837 5837 5836 5835 5835 5834 5833 5833 5832 5832 5832 5832 5831 5831 5831 5830 5830 5830 5829 5829 5829 5829 5829 5830 5830 5830 5830 5831 5831 5831 5831 5832
5842 5841 5841 5840 5839 5839 5838 5837 5837 5836 5836 5835 5834 5834 5833 5832 5831 5830 5829 5829 5828 5828 5828 5828 5827 5827 5827 5827 5826 5826 5826 5826 5826 5826 5826 5826 5826 5826 5827 5827 5827 5827 5827
5840 5839 5838 5838 5837 5836 5835 5835 5834 5833 5833 5832 5831 5830 5830 5829 5828 5827 5826 5826 5825 5825 5824 5824 5824 5823 5823 5823 5823 5822 5822 5822 5822 5822 5822 5822 5822 5822 5823 5823 5823 5823 5823
5837 5836 5835 5835 5834 5834 5833 5832 5831 5830 5829 5829 5828 5827 5826 5825 5824 5824 5823 5822 5822 5821 5821 5820 5820 5820 5819 5819 5819 5819 5818 5818 5818 5818 5818 5818 5818 5818 5818 5818 5818 5818 5819
5834 5833 5832 5832 5831 5830 5829 5829 5828 5827 5826 5825 5824 5824 5822 5822 5821 5820 5819 5819 5818 5817 5817 5817 5816 5816 5816 5815 5815 5815 5814 5814 5814 5814 5814 5813 5813 5813 5813 5813 5813 5813 5814
5830 5829 5829 5828 5828 5827 5826 5825 5824 5823 5822 5821 5820 5819 5818 5817 5817 5816 5815 5815 5814 5814 5813 5813 5812 5812 5812 5811 5811 5811 5810 5810 5809 5809 5809 5809 5809 5808 5808 5809 5808 5808 5809
5826 5826 5825 5824 5824 5823 5822 5821 5820 5819 5818 5817 5816 5815 5814 5813 5812 5811 5811 5811 5810 5810 5809 5809 5808 5808 5807 5807 5806 5806 5805 5805 5805 5804 5804 5804 5804 5804 5803 5803 5803 5803 5803
5822 5821 5820 5820 5819 5819 5818 5817 5816 5815 5814 5813 5812 5810 5809 5808 5807 5807 5806 5806 5806 5805 5805 5805 5804 5804 5803 5802 5802 5801 5800 5800 5800 5799 5799 5799 5798 5798 5798 5798 5797 5797 5797
5817 5816 5815 5815 5814 5813 5813 5812 5811 5810 5809 5807 5806 5806 5805 5804 5803 5802 5801 5801 5801 5800 5800 5800 5799 5799 5798 5797 5797 5796 5795 5794 5794 5794 5793 5793 5792 5792 5792 5791 5791 5791 5791
5811 5811 5810 5809 5809 5808 5807 5806 5805 5804 5803 5802 5801 5800 5799 5799 5798 5797 5796 5796 5795 5795 5795 5795 5794 5794 5793 5792 5791 5790 5789 5789 5788 5788 5787 5787 5786 5786 5785 5785 5784 5784 5784
5805 5805 5804 5804 5803 5802 5801 5800 5799 5798 5797 5796 5795 5795 5794 5793 5792 5792 5791 5791 5790 5789 5789 5789 5789 5788 5787 5787 5786 5785 5784 5783 5782 5782 5781 5780 5780 5779 5779 5778 5778 5777 5777
5799 5798 5798 5797 5797 5796 5795 5794 5793 5792 5791 5790 5790 5789 5788 5787 5786 5786 5785 5785 5784 5784 5783 5783 5783 5782 5781 5781 5780 5779 5778 5777 5776 5775 5774 5774 5773 5772 5772 5771 5771 5770 5770
5793 5792 5792 5791 5790 5789 5788 5787 5786 5785 5785 5784 5783 5782 5782 5781 5780 5779 5779 5779 5778 5778 5777 5777 5776 5775 5775 5774 5773 5773 5772 5771 5770 5769 5768 5767 5766 5765 5765 5764 5763 5762 5762
5787 5786 5785 5784 5783 5782 5782 5780 5780 5779 5778 5777 5777 5776 5775 5774 5774 5773 5772 5772 5772 5771 5771 5770 5769 5769 5768 5768 5767 5766 5765 5764 5763 5762 5761 5760 5759 5758 5757 5756 5755 5754 5753
5781 5780 5779 5777 5776 5775 5775 5773 5773 5772 5771 5770 5770 5769 5768 5768 5767 5766 5766 5765 5765 5764 5763 5763 5762 5762 5761 5760 5759 5759 5758 5757 5756 5755 5754 5753 5752 5751 5750 5749 5748 5746 5745
5774 5773 5772 5770 5769 5768 5767 5766 5765 5764 5764 5763 5763 5762 5761 5761 5760 5759 5758 5758 5757 5756 5756 5756 5755 5754 5753 5753 5752 5751 5750 5749 5748 5747 5746 5745 5744 5743 5742 5741 5740 5739 5738
5767 5766 5764 5763 5762 5761 5760 5759 5758 5757 5756 5755 5755 5754 5754 5753 5752 5752 5751 5750 5749 5749 5748 5748 5747 5746 5745 5744 5743 5743 5742 5741 5740 5739 5738 5738 5736 5735 5734 5733 5732 5731 5730
5759 5758 5757 5755 5754 5753 5752 5751 5750 5749 5748 5747 5746 5746 5745 5744 5744 5743 5743 5742 5741 5740 5739 5739 5738 5737 5736 5735 5734 5734 5733 5732 5732 5731 5730 5729 5728 5727 5726 5725 5724 5723 5722
5751 5749 5748 5747 5746 5745 5743 5742 5741 5740 5740 5739 5737 5737 5736 5735 5735 5734 5733 5733 5732 5731 5730 5729 5729 5728 5727 5726 5726 5725 5724 5723 5723 5722 5721 5720 5719 5718 5718 5717 5715 5714 5713